Location: Unspecified
(0.0000°N, 0.0000°E)
Time: 01:28:28
(UTC+02:00)

NATO 3D Rocket - Visible Passes

Search period start: 18 August 2017 00:00
Search period end: 28 August 2017 00:00
Orbit: 670 x 2296 km, 21.5° (Epoch: 16 August)

Date Brightness Start Highest point End Pass type
(mag) Time Alt. Az. Time Alt. Az. Time Alt. Az.
18 Aug 7.3 03:29:15 20° ESE 03:29:15 20° ESE 03:32:47 10° E visible
18 Aug 5.6 05:24:47 69° SSW 05:26:48 77° SSE 05:40:27 10° ENE visible
18 Aug 6.0 07:20:19 12° W 07:33:36 60° NNW 07:45:19 10° NE visible
18 Aug 6.1 22:04:22 10° SW 22:07:44 15° S 22:07:44 15° S visible
19 Aug 6.1 04:31:06 53° ESE 04:31:06 53° ESE 04:41:38 10° ENE visible
19 Aug 5.8 06:26:37 33° W 06:34:34 72° NNW 06:47:34 10° ENE visible
19 Aug 5.9 21:07:15 10° SW 21:10:20 15° S 21:13:54 10° SSE visible
20 Aug 7.0 03:37:24 25° E 03:37:24 25° E 03:42:17 10° E visible
20 Aug 5.6 05:32:56 68° W 05:35:26 85° NNW 05:49:20 10° ENE visible
20 Aug 6.3 07:29:04 10° W 07:42:25 47° NNW 07:54:01 10° NE visible
20 Aug 6.3 22:15:20 10° SSW 22:16:04 11° SSW 22:16:04 11° SSW visible
21 Aug 5.9 04:39:14 64° E 04:39:14 64° E 04:50:38 10° ENE visible
21 Aug 6.0 06:34:46 27° W 06:43:18 57° NNW 06:56:12 10° NE visible
21 Aug 6.1 21:19:12 10° S 21:20:10 10° S 21:21:10 10° S visible
22 Aug 6.8 03:45:32 30° E 03:45:32 30° E 03:51:27 10° ENE visible
22 Aug 5.7 05:41:04 57° WNW 05:44:07 67° NNW 05:57:59 10° ENE visible
22 Aug 6.5 07:38:47 10° W 07:51:25 38° NNW 08:02:43 10° NE visible
23 Aug 7.6 02:51:50 10° E 02:51:50 10° E 02:51:51 10° E visible
23 Aug 5.8 04:47:21 67° NE 04:47:21 67° NE 04:59:20 10° ENE visible
23 Aug 6.3 06:42:53 21° WNW 06:52:12 45° NNW 07:04:47 10° NE visible
24 Aug 6.7 03:53:38 34° ENE 03:53:38 34° ENE 04:00:16 10° ENE visible
24 Aug 5.9 05:49:10 44° WNW 05:52:57 53° NNW 06:06:29 10° NE visible
25 Aug 7.5 02:59:55 13° ENE 02:59:55 13° ENE 03:00:52 10° ENE visible
25 Aug 5.9 04:55:25 59° N 04:55:25 59° N 05:07:48 10° ENE visible
25 Aug 6.6 06:50:58 15° WNW 07:01:21 37° NNW 07:13:26 10° NE visible
26 Aug 6.6 04:01:42 36° NE 04:01:42 36° NE 04:08:48 10° ENE visible
26 Aug 6.2 05:57:14 33° NW 06:02:00 42° NNW 06:14:58 10° NE visible
27 Aug 7.4 03:07:58 15° ENE 03:07:58 15° ENE 03:09:33 10° ENE visible
27 Aug 6.0 05:03:29 48° N 05:03:29 48° N 05:16:11 10° NE visible
27 Aug 6.8 06:59:14 10° WNW 07:10:44 31° N 07:22:18 10° NE visible
